Lid_Strength_Index
2 2 2 2 2 1 2 2 2 1 1 1 1 1 1 1 2 2 3 3 4 4 4 4 5 6 6 7 7 8 8 8 9 9 8 7 6 7 6 6 5 5 4
2 2 2 2 2 2 2 2 2 1 1 1 1 1 1 1 2 3 3 3 3 4 4 5 6 7 7 6 7 8 8 8 8 9 8 8 8 8 8 7 5 3 4
2 2 2 2 2 2 2 2 3 2 1 1 1 1 1 1 3 3 3 3 3 4 5 5 7 7 6 7 7 7 8 7 8 8 8 9 9 8 8 7 6 5 3
3 4 4 3 2 2 2 3 3 3 4 4 3 1 2 3 3 3 4 4 3 4 5 5 6 7 6 7 7 7 7 8 8 8 9 10 10 9 9 8 7 6 6
3 3 4 4 2 3 4 4 4 5 5 4 3 3 2 3 3 4 3 4 5 6 7 7 7 7 5 6 7 9 9 10 9 10 11 11 11 11 10 9 9 8 7
4 4 3 2 2 3 3 4 4 5 4 4 4 4 3 2 8 6 4 5 6 7 9 9 8 6 6 7 6 7 8 10 11 11 12 12 12 12 11 10 10 9 9
4 3 2 2 3 3 2 3 3 4 4 5 5 4 4 3 8 8 6 3 5 7 10 11 10 9 8 9 7 7 7 8 8 10 11 11 12 11 10 10 10 10 8
3 3 3 3 3 3 3 2 2 3 5 5 5 4 3 3 9 9 7 5 7 8 11 10 10 10 10 9 10 10 10 9 9 9 10 10 10 10 9 9 9 9 8
4 3 3 2 3 3 3 3 3 4 4 4 4 5 5 6 10 10 6 7 9 10 10 11 10 10 11 10 9 10 10 10 8 8 9 10 10 10 8 8 9 9 9
3 3 2 3 3 3 4 3 3 3 4 4 4 5 6 8 11 11 8 9 9 11 12 12 11 12 11 11 8 9 11 11 10 10 11 11 10 9 8 9 9 10 10
5 4 2 4 3 3 3 3 3 2 4 5 6 6 7 7 10 12 11 8 10 12 13 13 13 12 11 10 9 9 10 10 10 10 10 10 11 9 8 9 9 9 10
3 3 3 4 4 5 6 3 4 6 8 7 8 8 8 9 11 11 11 11 12 12 14 14 13 12 12 11 11 12 12 11 11 12 11 13 13 11 10 10 9 8 7
4 3 4 4 5 4 5 6 7 8 8 9 9 10 9 9 11 12 12 13 13 14 14 13 13 12 12 12 12 12 12 12 13 13 14 13 12 11 11 11 10 9 7
8 6 4 4 5 4 6 7 7 8 9 9 10 10 9 10 11 11 12 14 13 14 12 12 12 12 11 11 11 12 12 13 13 13 14 13 12 11 11 12 12 11 11
8 8 8 9 9 10 10 8 7 7 8 9 9 9 9 10 10 11 12 13 14 13 13 12 12 12 13 13 13 12 12 13 13 14 13 13 12 11 12 12 12 12 12
9 8 8 8 8 8 9 10 13 12 12 13 12 9 10 12 13 13 12 13 14 13 12 12 13 13 13 13 13 13 13 13 13 13 13 13 12 12 12 12 12 13 13
9 10 9 9 9 9 9 9 12 12 13 14 14 13 13 13 14 14 14 14 14 13 12 13 12 12 12 13 13 13 14 14 13 13 13 12 11 11 12 12 13 13 13
11 11 11 10 11 10 10 9 10 11 12 12 13 14 14 14 14 15 14 14 14 13 13 13 13 12 12 13 13 13 13 14 14 14 13 12 11 11 12 13 13 14 13
11 11 12 12 12 12 12 12 12 13 13 14 14 14 15 15 14 14 13 13 13 13 13 13 12 12 13 13 14 13 14 14 14 14 14 12 12 12 13 13 14 14 14
11 12 12 12 12 13 13 14 14 15 14 14 14 14 13 14 13 13 12 13 13 12 12 13 13 13 13 13 13 14 15 14 14 15 14 12 12 13 13 13 14 14 14
10 11 13 11 12 13 13 14 14 14 14 14 14 15 16 13 14 13 13 13 13 13 14 14 14 14 14 15 15 15 14 14 15 15 13 12 13 13 13 13 13 14 14
9 10 10 11 12 13 13 13 13 13 13 13 13 14 15 13 13 13 13 13 14 14 14 14 15 15 15 15 15 15 15 15 15 13 13 13 14 13 13 14 14 14 14
10 10 10 11 11 12 12 12 13 13 12 12 12 13 13 13 13 14 14 14 14 14 14 15 16 17 17 16 16 16 16 16 14 13 14 13 13 15 14 14 14 14 14
10 10 10 11 11 12 12 12 12 13 12 12 12 12 13 13 14 14 14 14 15 15 15 16 17 17 17 17 17 16 16 15 14 13 13 14 14 14 14 13 14 13 14
10 10 10 11 11 12 12 12 12 12 12 13 13 13 14 14 14 15 15 15 16 16 17 17 17 17 17 17 16 15 15 15 15 14 14 13 13 13 13 14 14 13 13
9 10 10 10 11 11 12 12 12 12 13 13 13 14 14 14 14 15 15 15 16 16 17 17 17 17 15 15 15 15 15 15 14 14 13 13 13 14 14 14 13 13 13